Viroqua, WI

12:38 PM CST on November 22, 2017 (GMT -0600)
Viroqua

Weather History for KY51 - December, 2013

Change the Weather History Date:

Thursday, December 5, 2013

  Actual Average (KCMY) Record (KCMY)
Temperature  
Mean Temperature 16 °F -  
Max Temperature 27 °F 32 °F 66 °F (2001)
Min Temperature 6 °F 14 °F -10 °F (1976)
Degree Days  
Heating Degree Days 48    
Moisture  
Dew Point 9 °F    
Average Humidity 78    
Maximum Humidity 95    
Minimum Humidity 65    
Precipitation  
Precipitation 0.00 in - - ()
Sea Level Pressure  
Sea Level Pressure 29.99 in    
Wind  
Wind Speed 17 mph (West)    
Max Wind Speed 29 mph    
Max Gust Speed 38 mph    
Visibility 10 miles    
Events      
Averages and records for this station are not official NWS values.
T = Trace of Precipitation, MM = Missing Value Source: NWS Daily Summary

Daily Weather History Graph

Daily Weather History Graph

Search for Another Location

Airport or City:

Trip Planner

Search our weather history database for the weather conditions in past years. The results will help you decide how hot, cold, wet, or windy it might be!

Date:

Astronomy

Dec. 05, 2013 Rise Set
Actual Time 7:21 AM CST 4:27 PM CST
Civil Twilight 6:49 AM CST 4:59 PM CST
Nautical Twilight 6:13 AM CST 5:35 PM CST
Astronomical Twilight 5:38 AM CST 6:10 PM CST
Moon 9:39 AM CST (12/5) 7:51 PM CST (12/5)
Length of Visible Light 10h 10m
Length of Day
9h 05m
Waxing Crescent, 11% of the Moon is Illuminated
Dec 5
Waxing Crescent
Dec 9
First Quarter
Dec 17
Full
Dec 25
Last Quarter
Jan 1
New

Hourly Weather History & Observations

Time (CST) Temp. Windchill Dew Point Humidity Pressure Visibility Wind Dir Wind Speed Gust Speed Precip Events Conditions
12:15 AM 27.1 °F 12.4 °F 25.3 °F 93% 29.66 in 10.0 mi West 24.2 mph 31.1 mph N/A   Overcast
12:35 AM 25.7 °F 10.5 °F 23.9 °F 93% 29.68 in 10.0 mi West 24.2 mph 34.5 mph N/A   Overcast
12:55 AM 25.3 °F 8.9 °F 23.9 °F 94% 29.69 in 10.0 mi WSW 28.8 mph 36.8 mph N/A   Overcast
1:15 AM 23.0 °F 6.9 °F 21.6 °F 94% 29.70 in 10.0 mi West 24.2 mph 38.0 mph N/A   Overcast
1:35 AM 22.1 °F 7.6 °F 20.5 °F 93% 29.71 in 10.0 mi West 18.4 mph 33.4 mph N/A   Overcast
1:55 AM 22.1 °F 8.9 °F 20.8 °F 95% 29.69 in 10.0 mi West 15.0 mph 19.6 mph N/A   Overcast
2:15 AM 20.1 °F 6.9 °F 17.4 °F 89% 29.69 in 10.0 mi West 13.8 mph 28.8 mph N/A   Mostly Cloudy
2:35 AM 19.8 °F 4.5 °F 17.1 °F 89% 29.74 in 10.0 mi West 18.4 mph 25.3 mph N/A   Mostly Cloudy
2:55 AM 19.2 °F 3.0 °F 16.5 °F 89% 29.75 in 10.0 mi West 20.7 mph 25.3 mph N/A   Overcast
3:15 AM 17.6 °F 3.7 °F 14.7 °F 88% 29.76 in 10.0 mi West 13.8 mph 21.9 mph N/A   Mostly Cloudy
3:35 AM 17.2 °F 3.9 °F 13.8 °F 86% 29.77 in 10.0 mi West 12.7 mph 20.7 mph N/A   Mostly Cloudy
3:55 AM 16.5 °F -0.1 °F 12.4 °F 84% 29.78 in 10.0 mi West 19.6 mph 27.6 mph N/A   Overcast
4:15 AM 16.3 °F 1.6 °F 12.0 °F 83% 29.80 in 10.0 mi West 15.0 mph 25.3 mph N/A   Overcast
4:35 AM 15.6 °F 0.6 °F 10.8 °F 81% 29.81 in 10.0 mi West 15.0 mph 28.8 mph N/A   Mostly Cloudy
4:55 AM 14.9 °F -1.3 °F 11.7 °F 87% 29.83 in 10.0 mi West 17.3 mph 25.3 mph N/A   Overcast
5:15 AM 14.4 °F -3.8 °F 10.6 °F 85% 29.84 in 10.0 mi West 21.9 mph 29.9 mph N/A   Overcast
5:35 AM 13.6 °F -4.4 °F 9.9 °F 85% 29.86 in 10.0 mi West 20.7 mph 26.5 mph N/A   Overcast
5:55 AM 13.1 °F -6.7 °F 9.0 °F 84% 29.87 in 10.0 mi West 25.3 mph 29.9 mph N/A   Overcast
6:15 AM 12.7 °F -3.6 °F 8.2 °F 82% 29.87 in 10.0 mi West 16.1 mph 27.6 mph N/A   Overcast
6:35 AM 12.2 °F -6.3 °F 8.1 °F 83% 29.89 in 10.0 mi West 20.7 mph 28.8 mph N/A   Scattered Clouds
6:55 AM 11.8 °F -4.8 °F 6.6 °F 80% 29.89 in 10.0 mi West 16.1 mph 25.3 mph N/A   Scattered Clouds
7:15 AM 11.7 °F -5.5 °F 6.8 °F 81% 29.90 in 10.0 mi West 17.3 mph 21.9 mph N/A   Scattered Clouds
7:35 AM 11.3 °F -5.5 °F 6.3 °F 80% 29.91 in 10.0 mi West 16.1 mph 25.3 mph N/A   Mostly Cloudy
7:55 AM 10.9 °F -4.7 °F 5.7 °F 79% 29.92 in 10.0 mi West 13.8 mph 21.9 mph N/A   Scattered Clouds
8:15 AM 11.1 °F -3.2 °F 5.7 °F 79% 29.93 in 10.0 mi West 11.5 mph 20.7 mph N/A   Scattered Clouds
8:35 AM 11.3 °F -2.9 °F 5.7 °F 78% 29.95 in 10.0 mi West 11.5 mph 23.0 mph N/A   Scattered Clouds
8:55 AM 12.4 °F -4.1 °F 6.3 °F 76% 29.96 in 10.0 mi West 16.1 mph 21.9 mph N/A   Scattered Clouds
9:15 AM 12.9 °F -5.7 °F 6.4 °F 75% 29.96 in 10.0 mi WSW 21.9 mph 27.6 mph N/A   Scattered Clouds
9:35 AM 12.9 °F -4.4 °F 5.9 °F 74% 29.98 in 10.0 mi West 18.4 mph 24.2 mph N/A   Scattered Clouds
9:55 AM 12.7 °F -4.6 °F 6.1 °F 75% 29.99 in 10.0 mi West 18.4 mph 21.9 mph N/A   Scattered Clouds
10:15 AM 14.0 °F 0.5 °F 6.4 °F 72% 30.00 in 10.0 mi West 11.5 mph 23.0 mph N/A   Mostly Cloudy
10:35 AM 14.2 °F -0.6 °F 6.6 °F 72% 30.01 in 10.0 mi WNW 13.8 mph 19.6 mph N/A   Overcast
10:55 AM 14.7 °F -1.6 °F 6.6 °F 70% 30.00 in 10.0 mi WNW 17.3 mph 23.0 mph N/A   Mostly Cloudy
11:15 AM 15.3 °F -0.4 °F 7.0 °F 70% 30.00 in 10.0 mi WNW 16.1 mph 19.6 mph N/A   Mostly Cloudy
11:35 AM 15.4 °F 0.4 °F 7.2 °F 70% 30.00 in 10.0 mi WNW 15.0 mph 19.6 mph N/A   Scattered Clouds
11:55 AM 15.8 °F -0.2 °F 7.3 °F 69% 30.02 in 10.0 mi West 17.3 mph 21.9 mph N/A   Scattered Clouds
12:15 PM 16.7 °F 2.6 °F 7.3 °F 67% 30.03 in 10.0 mi West 13.8 mph 25.3 mph N/A   Mostly Cloudy
12:35 PM 16.5 °F 2.4 °F 7.3 °F 67% 30.03 in 10.0 mi West 13.8 mph 25.3 mph N/A   Mostly Cloudy
12:55 PM 16.7 °F 0.5 °F 6.8 °F 65% 30.03 in 10.0 mi West 18.4 mph 24.2 mph N/A   Mostly Cloudy
1:15 PM 16.5 °F 3.6 °F 6.4 °F 65% 30.03 in 10.0 mi West 11.5 mph 18.4 mph N/A   Scattered Clouds
1:35 PM 17.4 °F 1.9 °F 7.3 °F 65% 30.03 in 10.0 mi West 17.3 mph - N/A   Scattered Clouds
1:55 PM 16.7 °F 0.5 °F 6.8 °F 65% 30.03 in 10.0 mi WSW 18.4 mph 23.0 mph N/A   Scattered Clouds
2:15 PM 16.3 °F 0.5 °F 6.4 °F 65% 30.04 in 10.0 mi West 17.3 mph 21.9 mph N/A   Scattered Clouds
2:35 PM 16.5 °F 1.3 °F 6.8 °F 66% 30.05 in 10.0 mi West 16.1 mph 19.6 mph N/A   Clear
2:55 PM 16.3 °F 1.6 °F 7.3 °F 68% 30.05 in 10.0 mi West 15.0 mph 20.7 mph N/A   Clear
3:35 PM 14.9 °F 2.3 °F 6.6 °F 70% 30.05 in 10.0 mi West 10.4 mph 20.7 mph N/A   Clear
3:55 PM 14.5 °F 1.1 °F 6.8 °F 71% 30.06 in 10.0 mi West 11.5 mph - N/A   Clear
4:15 PM 14.2 °F 3.1 °F 7.0 °F 73% 30.07 in 10.0 mi West 8.1 mph - N/A   Clear
4:35 PM 14.0 °F 1.2 °F 7.0 °F 74% 30.07 in 10.0 mi West 10.4 mph 16.1 mph N/A   Clear
4:55 PM 13.6 °F 0.7 °F 7.0 °F 75% 30.08 in 10.0 mi West 10.4 mph - N/A   Clear
5:15 PM 13.1 °F 0.1 °F 6.8 °F 76% 30.10 in 10.0 mi West 10.4 mph - N/A   Clear
5:35 PM 13.1 °F -3.1 °F 7.3 °F 78% 30.13 in 10.0 mi WSW 16.1 mph - N/A   Scattered Clouds
5:55 PM 13.1 °F -2.0 °F 7.3 °F 78% 30.14 in 10.0 mi West 13.8 mph 19.6 mph N/A   Overcast
6:15 PM 12.9 °F -2.2 °F 7.2 °F 78% 30.16 in 10.0 mi West 13.8 mph - N/A   Mostly Cloudy
6:35 PM 12.7 °F -1.8 °F 7.5 °F 80% 30.17 in 10.0 mi West 12.7 mph 17.3 mph N/A   Mostly Cloudy
6:55 PM 12.2 °F -3.1 °F 6.8 °F 79% 30.17 in 10.0 mi West 13.8 mph 19.6 mph N/A   Mostly Cloudy
7:15 PM 12.0 °F -2.0 °F 6.8 °F 80% 30.19 in 10.0 mi West 11.5 mph 19.6 mph N/A   Overcast
7:35 PM 11.3 °F -1.3 °F 6.3 °F 80% 30.19 in 10.0 mi West 9.2 mph - N/A   Overcast
7:55 PM 11.3 °F -2.2 °F 6.3 °F 80% 30.20 in 7.0 mi West 10.4 mph - N/A   Overcast
8:15 PM 10.9 °F -3.4 °F 5.7 °F 79% 30.20 in 10.0 mi West 11.5 mph 17.3 mph N/A   Overcast
8:35 PM 10.4 °F -3.3 °F 5.4 °F 80% 30.21 in 7.0 mi West 10.4 mph - N/A   Overcast
8:55 PM 9.3 °F -5.4 °F 3.6 °F 77% 30.20 in 10.0 mi WNW 11.5 mph - N/A   Overcast
9:15 PM 8.6 °F -6.3 °F 2.7 °F 77% 30.21 in 10.0 mi WNW 11.5 mph - N/A   Scattered Clouds
9:35 PM 8.2 °F -7.5 °F 3.0 °F 79% 30.22 in 10.0 mi WNW 12.7 mph - N/A   Clear
9:55 PM 7.9 °F -5.5 °F 2.5 °F 79% 30.21 in 10.0 mi NW 9.2 mph - N/A   Scattered Clouds
10:15 PM 7.5 °F -5.0 °F 2.1 °F 79% 30.22 in 10.0 mi WNW 8.1 mph - N/A   Scattered Clouds
10:35 PM 7.3 °F -7.1 °F 1.8 °F 78% 30.23 in 10.0 mi WNW 10.4 mph - N/A   Scattered Clouds
10:55 PM 6.8 °F -8.6 °F 1.8 °F 80% 30.24 in 10.0 mi WNW 11.5 mph - N/A   Clear
11:15 PM 6.8 °F -7.8 °F 1.8 °F 80% 30.25 in 10.0 mi WNW 10.4 mph - N/A   Clear
11:35 PM 6.6 °F -7.1 °F 1.8 °F 80% 30.25 in 10.0 mi WNW 9.2 mph - N/A   Clear
11:55 PM 6.4 °F -9.0 °F 2.1 °F 82% 30.26 in 10.0 mi WNW 11.5 mph - N/A   Clear